{"data":{"norad_id":56167,"intl_designator":"2023-050F","name":"CHECKMATE 2","alt_names":[],"object_type":"PAYLOAD","status":"ACTIVE","operator":null,"country":"US","launch_date":"2023-04-02","launch_site_code":"AFWTR","launch_vehicle":null,"mission":null,"orbit_class":"UNKNOWN","rcs_meters":null,"size_class":null,"mass_kg":null,"dimensions":null,"purposes":[],"wikipedia_slug":null,"has_3d_model":false,"image_url":null,"decayed_at":null,"tle_current":{"epoch":"2026-05-25T02:10:43.937184Z","epoch_age_seconds":63276,"freshness":"FRESH","line1":"1 56167U 23050F   26145.09078631  .00000125  00000+0  10011-3 0  9990","line2":"2 56167  81.0037  93.8521 0007596  26.1315 334.0223 13.85155118158918","mean_motion":13.85155118,"eccentricity":0.0007596,"inclination_deg":81.0037,"raan_deg":93.8521,"arg_perigee_deg":26.1315,"mean_anomaly_deg":334.0223,"bstar":0.00010011,"rev_number":15891,"period_min":103.9594758224,"perigee_km":940.09576343705,"apogee_km":951.22207419692,"semimajor_km":7323.795918817,"source":"CELESTRAK","updated_at":"2026-05-25T13:37:59.369230Z"}}}